Regional Weather Roundup
Issued by NWS

Home | Current Version | Previous Version | Graphics & Text | Print | Product List | Glossary Off
Versions: 1 2 3 4 5 6 7 8 9 10 11 12 13 14 15 16 17 18 19 20 21 22 23 24 25 26 27 28 29 30 31 32 33 34 35 36 37 38 39 40 41 42 43 44 45 46 47 48 49 50

000
ASUS43 KOAX 311710
RWRNE

WEATHER ROUNDUP FOR NEBRASKA
NATIONAL WEATHER SERVICE OMAHA NE
1200 PM CDT THU JUL 31 2014

NOTES: SATELLITE DATA IS BEING USED TO AUGMENT CLOUD COVER ABOVE
       12000 FEET.
       "FAIR" INDICATES FEW OR NO CLOUDS BELOW 12,000 FEET WITH NO
       SIGNIFICANT WEATHER AND/OR OBSTRUCTIONS TO VISIBILITY.

  * THESE STATIONS DO NOT REPORT WEATHER SUCH AS RAIN...SNOW OR FOG.

NEZ001>004-019>022-054>056-311800-
NEBRASKA PANHANDLE

CITY           SKY/WX    TMP DP  RH WIND       PRES   REMARKS
SCOTTSBLUFF    SUNNY     78  55  44 S6        30.23S
ALLIANCE       MOSUNNY   80  42  25 VRB5      30.21F
CHADRON        SUNNY     80  50  34 E7        30.19F
KIMBALL        SUNNY     74  43  32 CALM      30.26S
SIDNEY         SUNNY     79  47  32 CALM      30.25S
$$

NEZ057>060-069>072-079>082-311800-
SOUTHWEST NEBRASKA

CITY           SKY/WX    TMP DP  RH WIND       PRES   REMARKS
NORTH PLATTE   SUNNY     80  60  50 VRB7      30.14F
IMPERIAL       SUNNY     79  54  41 W13       30.19S
LEXINGTON      SUNNY     85  55  35 W10G16    30.12S
MCCOOK         SUNNY     83  56  39 W10       30.16S
OGALLALA       MOSUNNY   80  58  46 SW5       30.18S
$$

NEZ005>010-023>029-035>040-094-311800-
NORTH CENTRAL NEBRASKA

CITY           SKY/WX    TMP DP  RH WIND       PRES   REMARKS
VALENTINE      SUNNY     82  52  35 N13       30.12R
AINSWORTH      SUNNY     79  55  43 N12       30.11R
BROKEN BOW     MOSUNNY   82  62  50 W10       30.10S
O`NEILL        SUNNY     79  60  51 E3        30.06F
ORD            MOSUNNY   82  56  40 W10       30.06S
THEDFORD       SUNNY     82  53  35 N9        30.14S
$$

NEZ041-046>049-061>064-073>077-083>087-311800-
SOUTH CENTRAL NEBRASKA

CITY           SKY/WX    TMP DP  RH WIND       PRES   REMARKS
GRAND ISLAND   PTSUNNY   83  60  45 S14       30.10S
AURORA         MOSUNNY   80  60  51 S13       30.10F
HASTINGS       MOSUNNY   82  57  42 SW12      30.11F
HEBRON         MOSUNNY   80  48  33 SW5       30.12F
HOLDREGE       MOSUNNY   81  57  43 SW10      30.13S
KEARNEY *      PTSUNNY   82  59  44 S17       30.11F
YORK           SUNNY     79  59  50 SW13      30.11S
$$

NEZ011>018-030>034-042>045-311800-
NORTHEAST NEBRASKA

CITY           SKY/WX    TMP DP  RH WIND       PRES   REMARKS
NORFOLK        PTSUNNY   79  58  48 S10       30.08F
ALBION         MOSUNNY   78  59  52 S10       30.06F
BLAIR          PTSUNNY   76  55  47 S6        30.10S
COLUMBUS *     MOSUNNY   64  57  77 S10       30.09S
FREMONT        MOSUNNY   79  60  51 SE6       30.10F
TEKAMAH        CLOUDY    77  57  50 S5        30.09S
WAYNE          MOSUNNY   74  63  66 SE5       30.09F
$$

NEZ050>053-065>068-078-088>093-311800-
SOUTHEAST NEBRASKA

CITY           SKY/WX    TMP DP  RH WIND       PRES   REMARKS
LINCOLN        SUNNY     82  53  36 SW12      30.11S
OMAHA EPPLEY   MOSUNNY   80  54  40 S9        30.09F
BEATRICE       SUNNY     79  55  43 S8        30.12S
FALLS CITY     MOSUNNY   81  52  36 VRB3      30.12S
NEBRASKA CITY  MOSUNNY   78  52  40 SW3       30.12F
PLATTSMOUTH    SUNNY     80  52  37 S6        30.11F
$$

NEZ044-045-051>053-067-311800-
OMAHA AREA

CITY           SKY/WX    TMP DP  RH WIND       PRES   REMARKS
OMAHA EPPLEY   MOSUNNY   80  54  40 S9        30.09F
BLAIR          PTSUNNY   76  55  47 S6        30.10S
FREMONT        MOSUNNY   79  60  51 SE6       30.10F
MILLARD        MOSUNNY   79  54  42 S3        30.09F
OFFUTT AFB     SUNNY     81  58  45 S6        30.09F
PLATTSMOUTH    SUNNY     80  52  37 S6        30.11F
WAHOO          FAIR      82  53  36 S9        30.09F
$$



USA.gov is the U.S. government's official web portal to all federal, state and local government web resources and services.